Letzte Messung
Zeitpunkt Temperatur Luftfeuchte Luftdruck
2020-12-04 12:05:38 1.23 ℃ 100 % 992.8 hPa

Zeitpunkt Temperatur Luftfeuchte Luftdruck
2020-12-04 12:05:38 1.23 ℃ 100 % 992.8 hPa
2020-12-04 11:55:38 1.2 ℃ 100 % 992.87 hPa
2020-12-04 11:45:38 1.18 ℃ 100 % 992.9 hPa
2020-12-04 11:35:38 1.04 ℃ 100 % 992.96 hPa
2020-12-04 11:25:38 1.01 ℃ 100 % 993.06 hPa
2020-12-04 11:15:38 1.08 ℃ 100 % 993.13 hPa
2020-12-04 11:05:38 0.72 ℃ 100 % 993.17 hPa
2020-12-04 10:55:38 0.59 ℃ 100 % 993.18 hPa
2020-12-04 10:45:38 0.54 ℃ 100 % 993.07 hPa
2020-12-04 10:35:38 0.51 ℃ 100 % 992.93 hPa
2020-12-04 10:25:38 0.48 ℃ 100 % 992.88 hPa
2020-12-04 10:15:38 0.48 ℃ 100 % 992.74 hPa
2020-12-04 10:05:38 0.47 ℃ 100 % 992.62 hPa
2020-12-04 09:55:38 0.43 ℃ 100 % 992.68 hPa
2020-12-04 09:45:38 0.4 ℃ 100 % 992.71 hPa
2020-12-04 09:35:38 0.3 ℃ 100 % 992.73 hPa
2020-12-04 09:25:38 0.3 ℃ 100 % 992.74 hPa
2020-12-04 09:15:38 0.25 ℃ 100 % 992.69 hPa
2020-12-04 09:05:38 0.16 ℃ 100 % 992.74 hPa
2020-12-04 08:55:38 0.09 ℃ 100 % 992.72 hPa
2020-12-04 08:45:38 0.03 ℃ 100 % 992.69 hPa
2020-12-04 08:35:38 -0.06 ℃ 100 % 992.6 hPa
2020-12-04 08:25:38 -0.04 ℃ 100 % 992.52 hPa
2020-12-04 08:15:38 -0.01 ℃ 100 % 992.51 hPa
2020-12-04 08:05:43 -0.15 ℃ 100 % 992.53 hPa
2020-12-04 07:55:38 -0.16 ℃ 100 % 992.54 hPa
2020-12-04 07:45:38 -0.23 ℃ 100 % 992.53 hPa
2020-12-04 07:35:38 -0.24 ℃ 100 % 992.53 hPa
2020-12-04 07:25:38 -0.26 ℃ 100 % 992.53 hPa
2020-12-04 07:15:38 -0.23 ℃ 100 % 992.56 hPa
2020-12-04 07:05:38 -0.23 ℃ 100 % 992.53 hPa
2020-12-04 06:55:38 -0.21 ℃ 100 % 992.58 hPa
2020-12-04 06:45:38 -0.2 ℃ 100 % 992.65 hPa
2020-12-04 06:35:38 -0.2 ℃ 100 % 992.75 hPa
2020-12-04 06:25:38 -0.17 ℃ 100 % 992.78 hPa
2020-12-04 06:15:38 -0.22 ℃ 100 % 992.83 hPa
Durchschnitt 0.27 ℃ 100 % 992.75 hPa

weatherino

Wetterdaten aus der Harmsstraße 54 in 24114 Kiel (4. OG, außen), die per BME280 und einem ESP-32 erhoben werden.

Unter https://wetter.janbpunkt.de/weather.xml steht eine entsprechende XML bereit, die das jüngste Messergebnis enthält.

Da der weatherino ab und zu ausfällt/gewartet wird, können Messpunkte fehlen.

Mehr zu dem Projekt findet man hier.

SSL, keine Cookies, keine IP-Adress-Speicherung, keine Verarbeitung von personenbezogenen Daten

Impressum

Extremwerte

Nachfolgend die Extremwerte seit Aufzeichnung.

BezeichnungWertZeitpunkt
Niedrigste Temperatur-0.99 ℃2020-03-23 06:17:03
Höchste Temperatur30.87 ℃2020-08-06 16:22:59
Niedrigster Luftdruck984.55 hPa2020-02-29 18:47:55
Höchster Luftdruck1042.34 hPa2020-03-23 07:47:03
Niedrigste Luftfeuchtigkeit21.35 %2020-03-25 15:06:57
Höchste Luftfeuchtigkeit100 %2020-12-04 12:05:38